This demonstration page uses our WeatherBlox Daily Observations layout. Learn more.

36.17497, -115.13722

Hourly Observations for November 26, 2019

Temp ( °F °C ) Dew Point ( °F °C ) Humidity (%) Winds ( mph kmh ) Pressure ( in mb ) Visibility ( mi km ) Precip ( " mm )
12:53 am 00:53 Clear 45 7.2 16 -8.9 31 31 NW 22 35 29.89 1012 10 16.0934 0 0
1:53 am 01:53 Clear 43 6.1 18 -7.8 37 37 NW 20 31 29.91 1013 10 16.0934 0 0
2:53 am 02:53 Clear 43 6.1 18 -7.8 37 37 NW 18 30 29.92 1013 10 16.0934 0 0
3:53 am 03:53 Clear 43 6.1 18 -7.8 37 37 NW 22 35 29.92 1013 10 16.0934 0 0
4:53 am 04:53 Clear 42 5.6 18 -7.8 38 38 NNW 9 15 29.98 1015 10 16.0934 0 0
5:53 am 05:53 Clear 42 5.6 17 -8.3 36 36 WNW 3 6 30.01 1016 10 16.0934 0 0
6:53 am 06:53 Sunny 43 6.1 15 -9.4 32 32 NW 16 26 30.01 1016 10 16.0934 0 0
7:53 am 07:53 Sunny 45 7.2 15 -9.4 30 30 NW 18 30 30.04 1017 10 16.0934 0 0
8:53 am 08:53 Sunny 48 8.9 12 -11.1 23 23 NW 13 20 30.05 1018 10 16.0934 0 0
9:53 am 09:53 Sunny 48 8.9 9 -12.8 20 20 NNW 22 35 30.04 1017 10 16.0934 0 0
10:53 am 10:53 Sunny 49 9.4 9 -12.8 20 20 NW 10 17 30.03 1017 10 16.0934 0 0
11:53 am 11:53 Sunny 48 8.9 13 -10.6 24 24 VRB 6 9 30 1016 10 16.0934 0 0
12:53 pm 12:53 Sunny 49 9.4 11 -11.7 21 21 VRB 5 7 29.97 1015 10 16.0934 0 0
1:53 pm 13:53 Sunny 49 9.4 13 -10.6 23 23 Calm 29.97 1015 10 16.0934 0 0
2:53 pm 14:53 Sunny 49 9.4 13 -10.6 23 23 SE 10 17 29.95 1014 10 16.0934 0 0
3:53 pm 15:53 Sunny 49 9.4 12 -11.1 22 22 ESE 10 17 29.92 1013 10 16.0934 0 0
4:53 pm 16:53 Clear 47 8.3 14 -10 26 26 ESE 7 11 29.93 1013 10 16.0934 0 0
5:53 pm 17:53 Clear 46 7.8 14 -10 27 27 ESE 7 11 29.92 1013 10 16.0934 0 0
6:53 pm 18:53 Clear 45 7.2 15 -9.4 30 30 SE 6 9 29.91 1013 10 16.0934 0 0
7:53 pm 19:53 Clear 45 7.2 18 -7.8 34 34 ESE 7 11 29.9 1012 10 16.0934 0 0
8:53 pm 20:53 Clear 44 6.7 19 -7.2 37 37 ESE 6 9 29.88 1012 10 16.0934 0 0
9:53 pm 21:53 Clear 44 6.7 19 -7.2 37 37 ESE 10 17 29.86 1011 10 16.0934 0 0
10:53 pm 22:53 Clear 43 6.1 18 -7.8 37 37 E 9 15 29.84 1011 10 16.0934 0 0
11:53 pm 23:53 Clear 43 6.1 19 -7.2 38 38 E 8 13 29.81 1009 10 16.0934 0 0

Powered by AerisWeather